Time,TemperatureF,DewpointF,PressureIn,WindDirection,WindDirectionDegrees,WindSpeedMPH,WindSpeedGustMPH,Humidity,HourlyPrecipIn,Conditions,Clouds,dailyrainin,SoftwareType,DateUTC
2013-08-06 00:03:00,67.5,48.2,29.85,North,0,1.3,2.6,50,0.00,,,0.00,WUHU216TE923,2013-08-06 07:03:00,
2013-08-06 00:08:00,67.5,48.2,29.85,NNE,23,1.2,1.7,50,0.00,,,0.00,WUHU216TE923,2013-08-06 07:08:00,
2013-08-06 00:13:00,67.5,48.2,29.85,NNE,23,1.2,1.7,50,0.00,,,0.00,WUHU216TE923,2013-08-06 07:13:00,
2013-08-06 00:18:00,67.3,48.6,29.86,NNE,23,1.3,1.7,51,0.00,,,0.00,WUHU216TE923,2013-08-06 07:18:00,
2013-08-06 00:23:00,67.1,48.4,29.86,NW,315,1.3,1.3,51,0.00,,,0.00,WUHU216TE923,2013-08-06 07:23:00,
2013-08-06 00:28:00,67.1,48.4,29.86,NW,315,1.5,3.6,51,0.00,,,0.00,WUHU216TE923,2013-08-06 07:28:00,
2013-08-06 00:33:00,66.9,48.2,29.86,NNE,23,1.8,4.3,51,0.00,,,0.00,WUHU216TE923,2013-08-06 07:33:00,
2013-08-06 00:38:00,66.9,48.2,29.86,NNE,23,1.8,4.3,51,0.00,,,0.00,WUHU216TE923,2013-08-06 07:38:00,
2013-08-06 00:43:00,66.7,48.1,29.86,North,0,1.2,2.1,51,0.00,,,0.00,WUHU216TE923,2013-08-06 07:43:00,
2013-08-06 00:48:00,66.6,48.0,29.86,West,270,1.0,2.1,51,0.00,,,0.00,WUHU216TE923,2013-08-06 07:48:00,
2013-08-06 00:53:00,66.4,48.3,29.86,NW,315,1.1,1.1,52,0.00,,,0.00,WUHU216TE923,2013-08-06 07:53:00,
2013-08-06 00:58:00,66.2,48.1,29.86,West,270,0.6,1.1,52,0.00,,,0.00,WUHU216TE923,2013-08-06 07:58:00,
2013-08-06 01:03:00,66.0,48.5,29.86,West,270,0.4,1.3,53,0.00,,,0.00,WUHU216TE923,2013-08-06 08:03:00,
2013-08-06 01:08:00,65.7,48.2,29.86,WNW,293,0.8,2.0,53,0.00,,,0.00,WUHU216TE923,2013-08-06 08:08:00,
2013-08-06 01:13:00,65.3,47.8,29.86,NW,315,1.4,2.0,53,0.00,,,0.00,WUHU216TE923,2013-08-06 08:13:00,
2013-08-06 01:18:00,65.1,47.6,29.86,WNW,293,1.4,1.8,53,0.00,,,0.00,WUHU216TE923,2013-08-06 08:18:00,
2013-08-06 01:23:00,64.8,47.9,29.86,West,270,1.1,1.4,54,0.00,,,0.00,WUHU216TE923,2013-08-06 08:23:00,
2013-08-06 01:28:00,64.6,47.7,29.86,WSW,248,0.9,1.2,54,0.00,,,0.00,WUHU216TE923,2013-08-06 08:28:00,
2013-08-06 01:33:00,64.2,47.3,29.86,West,270,0.8,1.3,54,0.00,,,0.00,WUHU216TE923,2013-08-06 08:33:00,
2013-08-06 01:38:00,64.2,47.8,29.86,West,270,1.0,1.7,55,0.00,,,0.00,WUHU216TE923,2013-08-06 08:38:00,
2013-08-06 01:43:00,64.0,47.6,29.86,WSW,248,1.0,1.7,55,0.00,,,0.00,WUHU216TE923,2013-08-06 08:43:00,
2013-08-06 01:48:00,63.9,47.5,29.86,WSW,248,0.9,1.4,55,0.00,,,0.00,WUHU216TE923,2013-08-06 08:48:00,
2013-08-06 01:53:00,63.7,47.3,29.86,WSW,248,1.0,1.5,55,0.00,,,0.00,WUHU216TE923,2013-08-06 08:53:00,
2013-08-06 01:58:00,63.7,47.3,29.86,WSW,248,1.0,1.6,55,0.00,,,0.00,WUHU216TE923,2013-08-06 08:58:00,
2013-08-06 02:03:00,63.5,47.1,29.86,West,270,0.8,1.6,55,0.00,,,0.00,WUHU216TE923,2013-08-06 09:03:00,
2013-08-06 02:08:00,63.5,47.1,29.86,West,270,0.8,1.1,55,0.00,,,0.00,WUHU216TE923,2013-08-06 09:08:00,
2013-08-06 02:13:00,63.1,46.8,29.86,SW,225,0.1,0.1,55,0.00,,,0.00,WUHU216TE923,2013-08-06 09:13:00,
2013-08-06 02:18:00,63.0,46.7,29.85,SW,225,0.0,0.1,55,0.00,,,0.00,WUHU216TE923,2013-08-06 09:18:00,
2013-08-06 02:23:00,62.8,46.5,29.85,WNW,293,0.0,1.0,55,0.00,,,0.00,WUHU216TE923,2013-08-06 09:23:00,
2013-08-06 02:28:00,63.0,47.2,29.85,WSW,248,0.1,1.0,56,0.00,,,0.00,WUHU216TE923,2013-08-06 09:28:00,
2013-08-06 02:33:00,63.1,47.3,29.85,East,90,0.3,1.2,56,0.00,,,0.00,WUHU216TE923,2013-08-06 09:33:00,
2013-08-06 02:38:00,63.3,47.4,29.85,NW,315,0.5,2.0,56,0.00,,,0.00,WUHU216TE923,2013-08-06 09:38:00,
2013-08-06 02:43:00,63.7,47.3,29.85,WNW,293,0.7,2.0,55,0.00,,,0.00,WUHU216TE923,2013-08-06 09:43:00,
2013-08-06 02:48:00,63.7,47.3,29.85,WSW,248,1.1,1.8,55,0.00,,,0.00,WUHU216TE923,2013-08-06 09:48:00,
2013-08-06 02:53:00,63.5,47.1,29.85,WSW,248,1.7,1.8,55,0.00,,,0.00,WUHU216TE923,2013-08-06 09:53:00,
2013-08-06 02:58:00,63.5,47.1,29.85,SSW,203,1.6,1.7,55,0.00,,,0.00,WUHU216TE923,2013-08-06 09:58:00,
2013-08-06 03:03:00,63.5,47.1,29.85,WSW,248,1.3,1.7,55,0.00,,,0.00,WUHU216TE923,2013-08-06 10:03:00,
2013-08-06 03:08:00,63.5,47.1,29.85,SW,225,1.2,1.4,55,0.00,,,0.00,WUHU216TE923,2013-08-06 10:08:00,
2013-08-06 03:13:00,63.5,47.1,29.85,SW,225,1.2,1.4,55,0.00,,,0.00,WUHU216TE923,2013-08-06 10:13:00,
2013-08-06 03:18:00,63.5,47.1,29.86,WSW,248,1.6,1.9,55,0.00,,,0.00,WUHU216TE923,2013-08-06 10:18:00,
2013-08-06 03:23:00,63.3,47.0,29.86,WSW,248,1.4,1.9,55,0.00,,,0.00,WUHU216TE923,2013-08-06 10:23:00,
2013-08-06 03:28:00,63.3,47.4,29.86,WSW,248,1.4,2.0,56,0.00,,,0.00,WUHU216TE923,2013-08-06 10:28:00,
2013-08-06 03:33:00,63.1,47.3,29.86,ENE,68,1.1,2.0,56,0.00,,,0.00,WUHU216TE923,2013-08-06 10:33:00,
2013-08-06 03:38:00,63.0,47.2,29.86,WSW,248,0.6,1.1,56,0.00,,,0.00,WUHU216TE923,2013-08-06 10:38:00,
2013-08-06 03:43:00,62.8,47.0,29.86,WSW,248,0.3,1.3,56,0.00,,,0.00,WUHU216TE923,2013-08-06 10:43:00,
2013-08-06 03:48:00,62.6,46.8,29.86,South,180,0.8,1.8,56,0.00,,,0.00,WUHU216TE923,2013-08-06 10:48:00,
2013-08-06 03:53:00,62.4,47.1,29.86,WSW,248,1.5,2.0,57,0.00,,,0.00,WUHU216TE923,2013-08-06 10:53:00,
2013-08-06 03:58:00,62.4,47.1,29.87,WSW,248,1.6,2.0,57,0.00,,,0.00,WUHU216TE923,2013-08-06 10:58:00,
2013-08-06 04:03:00,62.4,47.1,29.87,SW,225,1.1,1.6,57,0.00,,,0.00,WUHU216TE923,2013-08-06 11:03:00,
2013-08-06 04:08:00,62.2,46.9,29.87,SW,225,0.5,1.1,57,0.00,,,0.00,WUHU216TE923,2013-08-06 11:08:00,
2013-08-06 04:13:00,62.2,46.9,29.87,WSW,248,0.6,1.3,57,0.00,,,0.00,WUHU216TE923,2013-08-06 11:13:00,
2013-08-06 04:18:00,62.1,46.8,29.86,SW,225,1.2,2.0,57,0.00,,,0.00,WUHU216TE923,2013-08-06 11:18:00,
2013-08-06 04:23:00,62.1,46.8,29.86,SW,225,1.8,2.0,57,0.00,,,0.00,WUHU216TE923,2013-08-06 11:23:00,
2013-08-06 04:28:00,61.9,46.6,29.86,SW,225,1.9,2.2,57,0.00,,,0.00,WUHU216TE923,2013-08-06 11:28:00,
2013-08-06 04:33:00,61.9,47.1,29.86,WSW,248,1.9,2.4,58,0.00,,,0.00,WUHU216TE923,2013-08-06 11:33:00,
2013-08-06 04:38:00,61.9,47.1,29.87,WSW,248,1.9,2.4,58,0.00,,,0.00,WUHU216TE923,2013-08-06 11:38:00,
2013-08-06 04:43:00,61.9,47.1,29.87,WSW,248,1.9,3.8,58,0.00,,,0.00,WUHU216TE923,2013-08-06 11:43:00,
2013-08-06 04:48:00,62.1,47.3,29.87,SW,225,1.9,3.8,58,0.00,,,0.00,WUHU216TE923,2013-08-06 11:48:00,
2013-08-06 04:53:00,62.1,46.8,29.87,WSW,248,2.0,2.8,57,0.00,,,0.00,WUHU216TE923,2013-08-06 11:53:00,
2013-08-06 04:58:00,62.1,46.8,29.87,NW,315,1.9,2.0,57,0.00,,,0.00,WUHU216TE923,2013-08-06 11:58:00,
2013-08-06 05:03:00,62.1,46.8,29.87,WNW,293,1.9,2.7,57,0.00,,,0.00,WUHU216TE923,2013-08-06 12:03:00,
2013-08-06 05:08:00,61.9,46.6,29.87,WSW,248,2.3,3.0,57,0.00,,,0.00,WUHU216TE923,2013-08-06 12:08:00,
2013-08-06 05:13:00,61.7,46.4,29.87,WSW,248,2.4,3.0,57,0.00,,,0.00,WUHU216TE923,2013-08-06 12:13:00,
2013-08-06 05:18:00,61.7,46.4,29.86,SW,225,2.4,2.7,57,0.00,,,0.00,WUHU216TE923,2013-08-06 12:18:00,
2013-08-06 05:23:00,61.5,46.2,29.86,South,180,2.4,2.7,57,0.00,,,0.00,WUHU216TE923,2013-08-06 12:23:00,
2013-08-06 05:28:00,61.5,45.8,29.86,SW,225,2.4,3.3,56,0.00,,,0.00,WUHU216TE923,2013-08-06 12:28:00,
2013-08-06 05:33:00,61.5,45.8,29.86,WSW,248,2.6,3.3,56,0.00,,,0.00,WUHU216TE923,2013-08-06 12:33:00,
2013-08-06 05:38:00,61.5,45.8,29.86,WSW,248,2.9,4.6,56,0.00,,,0.00,WUHU216TE923,2013-08-06 12:38:00,
2013-08-06 05:43:00,61.3,45.6,29.86,SSW,203,3.3,4.6,56,0.00,,,0.00,WUHU216TE923,2013-08-06 12:43:00,
2013-08-06 05:48:00,61.3,45.6,29.86,SW,225,3.7,5.8,56,0.00,,,0.00,WUHU216TE923,2013-08-06 12:48:00,
2013-08-06 05:53:00,61.2,46.0,29.86,SSW,203,4.2,5.8,57,0.00,,,0.00,WUHU216TE923,2013-08-06 12:53:00,
2013-08-06 05:58:00,61.2,46.0,29.86,SE,135,4.5,5.9,57,0.00,,,0.00,WUHU216TE923,2013-08-06 12:58:00,
2013-08-06 06:03:00,61.0,45.8,29.86,West,270,4.4,9.2,57,0.00,,,0.00,WUHU216TE923,2013-08-06 13:03:00,
2013-08-06 06:08:00,61.0,45.8,29.86,South,180,4.5,9.2,57,0.00,,,0.00,WUHU216TE923,2013-08-06 13:08:00,
2013-08-06 06:13:00,61.0,45.8,29.86,South,180,4.5,4.5,57,0.00,,,0.00,WUHU216TE923,2013-08-06 13:13:00,
2013-08-06 06:18:00,61.0,45.8,29.86,SSW,203,4.8,7.5,57,0.00,,,0.00,WUHU216TE923,2013-08-06 13:18:00,
2013-08-06 06:23:00,60.8,46.0,29.86,South,180,4.6,7.5,58,0.00,,,0.00,WUHU216TE923,2013-08-06 13:23:00,
2013-08-06 06:28:00,61.0,46.2,29.86,WSW,248,4.8,5.6,58,0.00,,,0.00,WUHU216TE923,2013-08-06 13:28:00,
2013-08-06 06:33:00,61.0,46.7,29.86,South,180,4.8,5.6,59,0.00,,,0.00,WUHU216TE923,2013-08-06 13:33:00,
2013-08-06 06:38:00,61.0,46.7,29.87,WSW,248,4.9,5.0,59,0.00,,,0.00,WUHU216TE923,2013-08-06 13:38:00,
2013-08-06 06:43:00,61.0,46.7,29.87,WSW,248,5.2,9.0,59,0.00,,,0.00,WUHU216TE923,2013-08-06 13:43:00,
2013-08-06 06:48:00,61.0,46.7,29.87,South,180,5.8,10.0,59,0.00,,,0.00,WUHU216TE923,2013-08-06 13:48:00,
2013-08-06 06:53:00,61.0,46.7,29.87,SSW,203,6.4,10.0,59,0.00,,,0.00,WUHU216TE923,2013-08-06 13:53:00,
2013-08-06 06:58:00,60.8,46.5,29.88,SW,225,6.5,7.8,59,0.00,,,0.00,WUHU216TE923,2013-08-06 13:58:00,
2013-08-06 07:03:00,60.8,46.5,29.88,SSW,203,6.2,6.5,59,0.00,,,0.00,WUHU216TE923,2013-08-06 14:03:00,
2013-08-06 07:08:00,60.8,46.5,29.88,SW,225,6.4,6.4,59,0.00,,,0.00,WUHU216TE923,2013-08-06 14:08:00,
2013-08-06 07:13:00,60.8,46.5,29.88,SW,225,7.0,10.8,59,0.00,,,0.00,WUHU216TE923,2013-08-06 14:13:00,
2013-08-06 07:18:00,60.6,46.3,29.88,West,270,7.5,11.1,59,0.00,,,0.00,WUHU216TE923,2013-08-06 14:18:00,
2013-08-06 07:23:00,60.6,46.3,29.88,SW,225,7.2,11.1,59,0.00,,,0.00,WUHU216TE923,2013-08-06 14:23:00,
2013-08-06 07:28:00,60.4,46.1,29.88,SW,225,6.7,8.6,59,0.00,,,0.00,WUHU216TE923,2013-08-06 14:28:00,
2013-08-06 07:33:00,60.6,46.3,29.88,SW,225,7.2,7.7,59,0.00,,,0.00,WUHU216TE923,2013-08-06 14:33:00,
2013-08-06 07:38:00,60.8,46.5,29.88,SW,225,7.2,7.7,59,0.00,,,0.00,WUHU216TE923,2013-08-06 14:38:00,
2013-08-06 07:43:00,61.0,46.2,29.88,SW,225,6.4,10.5,58,0.00,,,0.00,WUHU216TE923,2013-08-06 14:43:00,
2013-08-06 07:48:00,61.2,46.4,29.88,SSW,203,5.9,10.5,58,0.00,,,0.00,WUHU216TE923,2013-08-06 14:48:00,
2013-08-06 07:53:00,61.3,46.5,29.88,SW,225,5.8,9.9,58,0.00,,,0.00,WUHU216TE923,2013-08-06 14:53:00,
2013-08-06 07:58:00,61.5,46.7,29.88,West,270,5.0,9.9,58,0.00,,,0.00,WUHU216TE923,2013-08-06 14:58:00,
2013-08-06 08:03:00,61.9,47.1,29.88,South,180,4.2,5.4,58,0.00,,,0.00,WUHU216TE923,2013-08-06 15:03:00,
2013-08-06 08:08:00,62.1,46.8,29.88,SSW,203,4.1,5.4,57,0.00,,,0.00,WUHU216TE923,2013-08-06 15:08:00,
2013-08-06 08:13:00,62.2,46.9,29.88,South,180,3.7,6.5,57,0.00,,,0.00,WUHU216TE923,2013-08-06 15:13:00,
2013-08-06 08:18:00,62.4,47.1,29.88,WSW,248,3.6,7.0,57,0.00,,,0.00,WUHU216TE923,2013-08-06 15:18:00,
2013-08-06 08:23:00,62.6,46.8,29.88,West,270,3.9,7.0,56,0.00,,,0.00,WUHU216TE923,2013-08-06 15:23:00,
2013-08-06 08:28:00,63.0,47.2,29.88,South,180,3.9,5.0,56,0.00,,,0.00,WUHU216TE923,2013-08-06 15:28:00,
2013-08-06 08:33:00,63.3,47.4,29.88,West,270,4.0,6.7,56,0.00,,,0.00,WUHU216TE923,2013-08-06 15:33:00,
2013-08-06 08:38:00,63.3,47.4,29.88,NW,315,4.0,6.7,56,0.00,,,0.00,WUHU216TE923,2013-08-06 15:38:00,
2013-08-06 08:43:00,63.9,48.0,29.88,SW,225,3.2,4.0,56,0.00,,,0.00,WUHU216TE923,2013-08-06 15:43:00,
2013-08-06 08:48:00,64.0,48.1,29.88,SW,225,3.1,6.5,56,0.00,,,0.00,WUHU216TE923,2013-08-06 15:48:00,
2013-08-06 08:53:00,64.4,48.5,29.88,West,270,3.1,6.5,56,0.00,,,0.00,WUHU216TE923,2013-08-06 15:53:00,
2013-08-06 08:58:00,64.6,48.7,29.88,WNW,293,2.9,4.4,56,0.00,,,0.00,WUHU216TE923,2013-08-06 15:58:00,
2013-08-06 09:03:00,65.1,49.1,29.88,West,270,2.4,4.4,56,0.00,,,0.00,WUHU216TE923,2013-08-06 16:03:00,
2013-08-06 09:08:00,65.5,49.5,29.88,NW,315,1.9,2.4,56,0.00,,,0.00,WUHU216TE923,2013-08-06 16:08:00,
2013-08-06 09:13:00,65.8,49.8,29.88,South,180,1.3,1.9,56,0.00,,,0.00,WUHU216TE923,2013-08-06 16:13:00,
2013-08-06 09:18:00,66.2,49.7,29.88,SE,135,1.0,1.7,55,0.00,,,0.00,WUHU216TE923,2013-08-06 16:18:00,
2013-08-06 09:23:00,66.9,50.3,29.88,SSW,203,0.7,6.0,55,0.00,,,0.00,WUHU216TE923,2013-08-06 16:23:00,
2013-08-06 09:28:00,67.1,50.5,29.88,WSW,248,1.3,6.0,55,0.00,,,0.00,WUHU216TE923,2013-08-06 16:28:00,
2013-08-06 09:33:00,67.6,50.5,29.88,SSE,158,1.8,2.3,54,0.00,,,0.00,WUHU216TE923,2013-08-06 16:33:00,
2013-08-06 09:38:00,68.0,50.8,29.88,South,180,1.2,5.4,54,0.00,,,0.00,WUHU216TE923,2013-08-06 16:38:00,
2013-08-06 09:43:00,68.4,50.7,29.88,South,180,1.4,5.4,53,0.00,,,0.00,WUHU216TE923,2013-08-06 16:43:00,
2013-08-06 09:48:00,68.5,51.3,29.88,South,180,1.4,2.2,54,0.00,,,0.00,WUHU216TE923,2013-08-06 16:48:00,
2013-08-06 09:53:00,68.9,51.2,29.88,SE,135,1.2,2.2,53,0.00,,,0.00,WUHU216TE923,2013-08-06 16:53:00,
2013-08-06 09:58:00,69.4,51.6,29.87,ENE,68,1.0,1.6,53,0.00,,,0.00,WUHU216TE923,2013-08-06 16:58:00,
2013-08-06 10:03:00,69.8,50.9,29.87,SE,135,0.9,1.3,51,0.00,,,0.00,WUHU216TE923,2013-08-06 17:03:00,
2013-08-06 10:08:00,70.3,50.3,29.87,West,270,1.2,1.4,49,0.00,,,0.00,WUHU216TE923,2013-08-06 17:08:00,
2013-08-06 10:13:00,70.9,50.8,29.87,SE,135,1.5,1.5,49,0.00,,,0.00,WUHU216TE923,2013-08-06 17:13:00,
2013-08-06 10:18:00,71.2,50.5,29.87,SW,225,1.6,4.0,48,0.00,,,0.00,WUHU216TE923,2013-08-06 17:18:00,
2013-08-06 10:23:00,71.6,50.3,29.87,SSW,203,1.2,4.2,47,0.00,,,0.00,WUHU216TE923,2013-08-06 17:23:00,
2013-08-06 10:28:00,72.1,50.2,29.87,South,180,1.7,4.2,46,0.00,,,0.00,WUHU216TE923,2013-08-06 17:28:00,
2013-08-06 10:33:00,72.7,49.5,29.87,WSW,248,2.5,4.0,44,0.00,,,0.00,WUHU216TE923,2013-08-06 17:33:00,
2013-08-06 10:38:00,73.0,50.4,29.86,South,180,2.1,4.0,45,0.00,,,0.00,WUHU216TE923,2013-08-06 17:38:00,
2013-08-06 10:43:00,73.6,48.4,29.86,West,270,1.9,4.1,41,0.00,,,0.00,WUHU216TE923,2013-08-06 17:43:00,
2013-08-06 10:48:00,74.1,47.4,29.86,SW,225,2.8,5.4,39,0.00,,,0.00,WUHU216TE923,2013-08-06 17:48:00,
2013-08-06 10:53:00,74.7,48.0,29.86,SW,225,2.9,5.4,39,0.00,,,0.00,WUHU216TE923,2013-08-06 17:53:00,
2013-08-06 10:58:00,74.8,47.4,29.87,SW,225,2.6,7.7,38,0.00,,,0.00,WUHU216TE923,2013-08-06 17:58:00,
2013-08-06 11:04:00,75.2,45.5,29.87,SW,225,2.8,7.7,35,0.00,,,0.00,WUHU216TE923,2013-08-06 18:04:00,
2013-08-06 11:09:00,75.4,45.7,29.87,SSW,203,3.1,3.8,35,0.00,,,0.00,WUHU216TE923,2013-08-06 18:09:00,
2013-08-06 11:14:00,75.7,45.2,29.87,SW,225,3.2,3.8,34,0.00,,,0.00,WUHU216TE923,2013-08-06 18:14:00,
2013-08-06 11:19:00,75.9,45.4,29.87,WSW,248,3.1,3.2,34,0.00,,,0.00,WUHU216TE923,2013-08-06 18:19:00,
2013-08-06 11:24:00,76.5,45.1,29.87,SSE,158,2.6,3.1,33,0.00,,,0.00,WUHU216TE923,2013-08-06 18:24:00,
2013-08-06 11:29:00,76.6,45.2,29.87,SSW,203,2.5,2.6,33,0.00,,,0.00,WUHU216TE923,2013-08-06 18:29:00,
2013-08-06 11:34:00,77.2,44.9,29.87,SSW,203,2.0,2.5,32,0.00,,,0.00,WUHU216TE923,2013-08-06 18:34:00,
2013-08-06 11:39:00,77.4,44.2,29.86,South,180,1.8,2.0,31,0.00,,,0.00,WUHU216TE923,2013-08-06 18:39:00,
2013-08-06 11:44:00,77.9,43.8,29.86,South,180,2.1,5.5,30,0.00,,,0.00,WUHU216TE923,2013-08-06 18:44:00,
2013-08-06 11:49:00,78.3,44.2,29.86,WSW,248,2.6,5.7,30,0.00,,,0.00,WUHU216TE923,2013-08-06 18:49:00,
2013-08-06 11:54:00,78.8,43.7,29.86,SSW,203,3.4,8.2,29,0.00,,,0.00,WUHU216TE923,2013-08-06 18:54:00,
2013-08-06 11:59:00,79.2,44.1,29.86,WSW,248,3.2,8.2,29,0.00,,,0.00,WUHU216TE923,2013-08-06 18:59:00,
2013-08-06 12:04:00,79.2,44.9,29.86,South,180,2.5,5.0,30,0.00,,,0.00,WUHU216TE923,2013-08-06 19:04:00,
2013-08-06 12:09:00,79.5,44.3,29.86,WSW,248,2.1,5.0,29,0.00,,,0.00,WUHU216TE923,2013-08-06 19:09:00,
2013-08-06 12:14:00,79.5,44.3,29.86,WSW,248,2.1,3.2,29,0.00,,,0.00,WUHU216TE923,2013-08-06 19:14:00,
2013-08-06 12:19:00,79.5,44.3,29.85,WSW,248,2.1,3.2,29,0.00,,,0.00,WUHU216TE923,2013-08-06 19:19:00,
2013-08-06 12:24:00,79.9,44.7,29.85,SSW,203,1.4,3.2,29,0.00,,,0.00,WUHU216TE923,2013-08-06 19:24:00,
2013-08-06 12:29:00,80.1,44.8,29.85,ESE,113,1.2,2.5,29,0.00,,,0.00,WUHU216TE923,2013-08-06 19:29:00,
2013-08-06 12:34:00,80.4,44.2,29.85,ENE,68,1.4,2.5,28,0.00,,,0.00,WUHU216TE923,2013-08-06 19:34:00,
2013-08-06 12:39:00,80.4,44.2,29.85,SE,135,1.5,3.0,28,0.00,,,0.00,WUHU216TE923,2013-08-06 19:39:00,
2013-08-06 12:44:00,81.0,43.7,29.85,NNW,338,1.5,3.6,27,0.00,,,0.00,WUHU216TE923,2013-08-06 19:44:00,
2013-08-06 12:49:00,81.1,43.8,29.85,WNW,293,2.2,3.6,27,0.00,,,0.00,WUHU216TE923,2013-08-06 19:49:00,
2013-08-06 12:54:00,81.3,44.0,29.85,NE,45,3.3,5.4,27,0.00,,,0.00,WUHU216TE923,2013-08-06 19:54:00,
2013-08-06 12:59:00,81.3,44.0,29.85,WNW,293,3.3,5.4,27,0.00,,,0.00,WUHU216TE923,2013-08-06 19:59:00,
2013-08-06 13:04:00,81.5,43.2,29.85,NW,315,3.8,3.8,26,0.00,,,0.00,WUHU216TE923,2013-08-06 20:04:00,
2013-08-06 13:09:00,81.5,43.2,29.85,NE,45,3.3,4.6,26,0.00,,,0.00,WUHU216TE923,2013-08-06 20:09:00,
2013-08-06 13:14:00,81.7,42.4,29.85,NNE,23,2.9,4.6,25,0.00,,,0.00,WUHU216TE923,2013-08-06 20:14:00,
2013-08-06 13:19:00,82.0,42.6,29.84,ENE,68,3.1,3.1,25,0.00,,,0.00,WUHU216TE923,2013-08-06 20:19:00,
2013-08-06 13:24:00,81.9,42.5,29.84,NNW,338,2.6,5.5,25,0.00,,,0.00,WUHU216TE923,2013-08-06 20:24:00,
2013-08-06 13:29:00,82.0,41.6,29.84,ENE,68,2.3,5.5,24,0.00,,,0.00,WUHU216TE923,2013-08-06 20:29:00,
2013-08-06 13:34:00,82.2,41.7,29.84,NNW,338,2.3,3.7,24,0.00,,,0.00,WUHU216TE923,2013-08-06 20:34:00,
2013-08-06 13:39:00,82.4,41.9,29.84,ENE,68,2.3,4.8,24,0.00,,,0.00,WUHU216TE923,2013-08-06 20:39:00,
2013-08-06 13:44:00,82.6,42.1,29.84,NNE,23,2.2,4.8,24,0.00,,,0.00,WUHU216TE923,2013-08-06 20:44:00,
2013-08-06 13:49:00,82.4,41.9,29.84,SSE,158,2.3,3.8,24,0.00,,,0.00,WUHU216TE923,2013-08-06 20:49:00,
2013-08-06 13:54:00,82.6,41.0,29.84,NE,45,2.3,3.0,23,0.00,,,0.00,WUHU216TE923,2013-08-06 20:54:00,
2013-08-06 13:59:00,82.4,40.8,29.84,NNE,23,2.1,2.5,23,0.00,,,0.00,WUHU216TE923,2013-08-06 20:59:00,
2013-08-06 14:04:00,82.6,41.0,29.84,SE,135,2.1,2.7,23,0.00,,,0.00,WUHU216TE923,2013-08-06 21:04:00,
2013-08-06 14:09:00,82.6,41.0,29.84,ENE,68,2.0,2.7,23,0.00,,,0.00,WUHU216TE923,2013-08-06 21:09:00,
2013-08-06 14:14:00,82.8,41.2,29.84,NE,45,1.7,3.6,23,0.00,,,0.00,WUHU216TE923,2013-08-06 21:14:00,
2013-08-06 14:19:00,82.8,41.2,29.83,SSE,158,2.0,3.6,23,0.00,,,0.00,WUHU216TE923,2013-08-06 21:19:00,
2013-08-06 14:24:00,82.9,41.2,29.83,NNE,23,2.0,5.4,23,0.00,,,0.00,WUHU216TE923,2013-08-06 21:24:00,
2013-08-06 14:29:00,83.3,41.6,29.83,NW,315,2.2,5.4,23,0.00,,,0.00,WUHU216TE923,2013-08-06 21:29:00,
2013-08-06 14:34:00,83.1,41.4,29.83,NNW,338,2.7,5.4,23,0.00,,,0.00,WUHU216TE923,2013-08-06 21:34:00,
2013-08-06 14:39:00,83.3,41.6,29.83,NNE,23,2.8,5.4,23,0.00,,,0.00,WUHU216TE923,2013-08-06 21:39:00,
2013-08-06 14:44:00,83.3,40.4,29.83,NNE,23,2.5,4.1,22,0.00,,,0.00,WUHU216TE923,2013-08-06 21:44:00,
2013-08-06 14:49:00,83.5,40.6,29.83,NE,45,2.7,5.4,22,0.00,,,0.00,WUHU216TE923,2013-08-06 21:49:00,
2013-08-06 14:54:00,83.8,42.0,29.83,West,270,3.0,5.4,23,0.00,,,0.00,WUHU216TE923,2013-08-06 21:54:00,
2013-08-06 14:59:00,83.8,40.9,29.81,NE,45,2.6,3.2,22,0.00,,,0.00,WUHU216TE923,2013-08-06 21:59:00,
2013-08-06 15:04:00,84.2,41.2,29.81,ESE,113,2.2,2.6,22,0.00,,,0.00,WUHU216TE923,2013-08-06 22:04:00,
2013-08-06 15:09:00,84.4,40.2,29.81,NNW,338,2.7,5.2,21,0.00,,,0.00,WUHU216TE923,2013-08-06 22:09:00,
2013-08-06 15:14:00,84.4,40.2,29.81,North,0,2.4,5.8,21,0.00,,,0.00,WUHU216TE923,2013-08-06 22:14:00,
2013-08-06 15:19:00,84.4,40.2,29.81,SSE,158,2.1,5.8,21,0.00,,,0.00,WUHU216TE923,2013-08-06 22:19:00,
2013-08-06 15:24:00,84.4,40.2,29.81,NNW,338,2.3,5.1,21,0.00,,,0.00,WUHU216TE923,2013-08-06 22:24:00,
2013-08-06 15:29:00,84.6,39.1,29.81,ESE,113,2.3,5.1,20,0.00,,,0.00,WUHU216TE923,2013-08-06 22:29:00,
2013-08-06 15:34:00,84.9,39.3,29.81,SE,135,3.2,3.3,20,0.00,,,0.00,WUHU216TE923,2013-08-06 22:34:00,
2013-08-06 15:39:00,84.9,39.3,29.81,ENE,68,3.6,3.6,20,0.00,,,0.00,WUHU216TE923,2013-08-06 22:39:00,
2013-08-06 15:44:00,85.1,36.8,29.81,NE,45,3.3,5.5,18,0.00,,,0.00,WUHU216TE923,2013-08-06 22:44:00,
2013-08-06 15:49:00,85.1,38.2,29.81,NNW,338,3.1,5.7,19,0.00,,,0.00,WUHU216TE923,2013-08-06 22:49:00,
2013-08-06 15:54:00,85.3,39.7,29.81,NW,315,2.5,5.7,20,0.00,,,0.00,WUHU216TE923,2013-08-06 22:54:00,
2013-08-06 15:59:00,85.5,39.8,29.80,NNE,23,2.0,2.8,20,0.00,,,0.00,WUHU216TE923,2013-08-06 22:59:00,
2013-08-06 16:04:00,85.1,38.2,29.80,ESE,113,2.1,2.8,19,0.00,,,0.00,WUHU216TE923,2013-08-06 23:04:00,
2013-08-06 16:09:00,85.1,36.8,29.80,NNE,23,2.2,5.0,18,0.00,,,0.00,WUHU216TE923,2013-08-06 23:09:00,
2013-08-06 16:14:00,84.9,36.7,29.80,NNW,338,2.0,5.0,18,0.00,,,0.00,WUHU216TE923,2013-08-06 23:14:00,
2013-08-06 16:19:00,84.9,39.3,29.80,ESE,113,2.1,2.2,20,0.00,,,0.00,WUHU216TE923,2013-08-06 23:19:00,
2013-08-06 16:24:00,84.7,36.5,29.80,NNW,338,2.9,7.1,18,0.00,,,0.00,WUHU216TE923,2013-08-06 23:24:00,
2013-08-06 16:29:00,84.9,36.7,29.80,ENE,68,3.3,7.1,18,0.00,,,0.00,WUHU216TE923,2013-08-06 23:29:00,
2013-08-06 16:34:00,84.7,36.5,29.80,NNE,23,3.2,4.5,18,0.00,,,0.00,WUHU216TE923,2013-08-06 23:34:00,
2013-08-06 16:39:00,84.6,33.4,29.80,South,180,3.3,5.8,16,0.00,,,0.00,WUHU216TE923,2013-08-06 23:39:00,
2013-08-06 16:44:00,84.6,35.0,29.80,ENE,68,3.3,5.8,17,0.00,,,0.00,WUHU216TE923,2013-08-06 23:44:00,
2013-08-06 16:49:00,84.6,33.4,29.80,ENE,68,3.6,5.0,16,0.00,,,0.00,WUHU216TE923,2013-08-06 23:49:00,
2013-08-06 16:59:00,84.4,33.3,29.79,East,90,3.6,5.8,16,0.00,,,0.00,WUHU216TE923,2013-08-06 23:59:00,
2013-08-06 17:04:00,84.4,31.6,29.79,East,90,3.5,4.7,15,0.00,,,0.00,WUHU216TE923,2013-08-07 00:04:00,
2013-08-06 17:09:00,84.4,31.6,29.79,East,90,3.6,5.3,15,0.00,,,0.00,WUHU216TE923,2013-08-07 00:09:00,
2013-08-06 17:14:00,84.4,31.6,29.79,NNE,23,3.8,5.8,15,0.00,,,0.00,WUHU216TE923,2013-08-07 00:14:00,
2013-08-06 17:19:00,84.2,31.5,29.79,NW,315,4.2,5.8,15,0.00,,,0.00,WUHU216TE923,2013-08-07 00:19:00,
2013-08-06 17:24:00,84.0,31.3,29.79,North,0,4.8,4.8,15,0.00,,,0.00,WUHU216TE923,2013-08-07 00:24:00,
2013-08-06 17:29:00,84.0,31.3,29.79,NNE,23,4.8,9.7,15,0.00,,,0.00,WUHU216TE923,2013-08-07 00:29:00,
2013-08-06 17:34:00,84.0,32.9,29.79,NNW,338,4.6,9.7,16,0.00,,,0.00,WUHU216TE923,2013-08-07 00:34:00,
2013-08-06 17:39:00,83.8,31.2,29.78,WNW,293,4.9,8.4,15,0.00,,,0.00,WUHU216TE923,2013-08-07 00:39:00,
2013-08-06 17:44:00,83.5,30.9,29.78,NE,45,5.9,5.9,15,0.00,,,0.00,WUHU216TE923,2013-08-07 00:44:00,
2013-08-06 17:49:00,83.5,32.5,29.78,NW,315,5.7,9.3,16,0.00,,,0.00,WUHU216TE923,2013-08-07 00:49:00,
2013-08-06 17:54:00,82.9,30.4,29.78,NNW,338,5.8,9.3,15,0.00,,,0.00,WUHU216TE923,2013-08-07 00:54:00,
2013-08-06 17:59:00,82.8,30.4,29.78,NNE,23,5.6,8.2,15,0.00,,,0.00,WUHU216TE923,2013-08-07 00:59:00,
2013-08-06 18:04:00,82.6,31.8,29.78,NNW,338,5.2,8.2,16,0.00,,,0.00,WUHU216TE923,2013-08-07 01:04:00,
2013-08-06 18:09:00,82.4,30.0,29.78,NW,315,4.9,8.1,15,0.00,,,0.00,WUHU216TE923,2013-08-07 01:09:00,
2013-08-06 18:14:00,82.2,33.0,29.78,NNE,23,4.6,8.1,17,0.00,,,0.00,WUHU216TE923,2013-08-07 01:14:00,
2013-08-06 18:19:00,82.2,33.0,29.79,NE,45,4.5,6.1,17,0.00,,,0.00,WUHU216TE923,2013-08-07 01:19:00,
2013-08-06 18:24:00,81.9,34.2,29.79,NW,315,4.8,5.2,18,0.00,,,0.00,WUHU216TE923,2013-08-07 01:24:00,
2013-08-06 18:29:00,81.7,34.0,29.79,ENE,68,5.2,5.5,18,0.00,,,0.00,WUHU216TE923,2013-08-07 01:29:00,
2013-08-06 18:34:00,81.5,36.5,29.79,WSW,248,5.2,6.2,20,0.00,,,0.00,WUHU216TE923,2013-08-07 01:34:00,
2013-08-06 18:39:00,81.5,36.5,29.79,WNW,293,5.2,6.7,20,0.00,,,0.00,WUHU216TE923,2013-08-07 01:39:00,
2013-08-06 18:44:00,81.3,36.4,29.79,NW,315,5.3,6.7,20,0.00,,,0.00,WUHU216TE923,2013-08-07 01:44:00,
2013-08-06 18:49:00,81.1,37.4,29.79,NNE,23,5.3,6.8,21,0.00,,,0.00,WUHU216TE923,2013-08-07 01:49:00,
2013-08-06 18:54:00,81.1,37.4,29.79,NNW,338,5.1,7.3,21,0.00,,,0.00,WUHU216TE923,2013-08-07 01:54:00,
2013-08-06 18:59:00,81.0,37.3,29.78,NW,315,5.4,9.1,21,0.00,,,0.00,WUHU216TE923,2013-08-07 01:59:00,
2013-08-06 19:04:00,80.8,37.2,29.78,NNE,23,5.5,9.1,21,0.00,,,0.00,WUHU216TE923,2013-08-07 02:04:00,
2013-08-06 19:09:00,80.6,37.0,29.78,NNW,338,5.4,6.8,21,0.00,,,0.00,WUHU216TE923,2013-08-07 02:09:00,
2013-08-06 19:14:00,80.4,38.0,29.78,West,270,4.4,5.8,22,0.00,,,0.00,WUHU216TE923,2013-08-07 02:14:00,
2013-08-06 19:19:00,80.2,37.8,29.79,NNW,338,4.1,5.8,22,0.00,,,0.00,WUHU216TE923,2013-08-07 02:19:00,
2013-08-06 19:24:00,80.1,37.8,29.79,NW,315,4.1,4.1,22,0.00,,,0.00,WUHU216TE923,2013-08-07 02:24:00,
2013-08-06 19:29:00,80.1,37.8,29.79,NW,315,4.1,4.1,22,0.00,,,0.00,WUHU216TE923,2013-08-07 02:29:00,
2013-08-06 19:34:00,79.3,37.1,29.79,NNW,338,3.5,5.0,22,0.00,,,0.00,WUHU216TE923,2013-08-07 02:34:00,
2013-08-06 19:39:00,79.2,37.0,29.80,SSW,203,3.7,8.4,22,0.00,,,0.00,WUHU216TE923,2013-08-07 02:39:00,
2013-08-06 19:44:00,78.8,36.7,29.80,NW,315,4.1,8.4,22,0.00,,,0.00,WUHU216TE923,2013-08-07 02:44:00,
2013-08-06 19:49:00,78.6,34.1,29.80,NNE,23,4.3,4.3,20,0.00,,,0.00,WUHU216TE923,2013-08-07 02:49:00,
2013-08-06 19:54:00,78.3,33.9,29.80,ENE,68,4.3,5.5,20,0.00,,,0.00,WUHU216TE923,2013-08-07 02:54:00,
2013-08-06 19:59:00,78.1,33.7,29.82,NNE,23,4.3,5.9,20,0.00,,,0.00,WUHU216TE923,2013-08-07 02:59:00,
2013-08-06 20:04:00,77.7,33.4,29.82,NNE,23,4.2,5.9,20,0.00,,,0.00,WUHU216TE923,2013-08-07 03:04:00,
2013-08-06 20:09:00,77.4,33.1,29.82,NW,315,3.9,5.8,20,0.00,,,0.00,WUHU216TE923,2013-08-07 03:09:00,
2013-08-06 20:14:00,77.0,32.8,29.82,NNE,23,4.0,5.8,20,0.00,,,0.00,WUHU216TE923,2013-08-07 03:14:00,
2013-08-06 20:19:00,76.8,33.9,29.80,NNW,338,4.3,5.6,21,0.00,,,0.00,WUHU216TE923,2013-08-07 03:19:00,
2013-08-06 20:24:00,76.5,33.6,29.80,North,0,3.3,4.9,21,0.00,,,0.00,WUHU216TE923,2013-08-07 03:24:00,
2013-08-06 20:29:00,76.3,33.4,29.80,North,0,2.3,3.3,21,0.00,,,0.00,WUHU216TE923,2013-08-07 03:29:00,
2013-08-06 20:34:00,76.3,33.4,29.80,NNE,23,1.9,5.6,21,0.00,,,0.00,WUHU216TE923,2013-08-07 03:34:00,
2013-08-06 20:39:00,76.1,33.3,29.81,NNE,23,1.8,5.6,21,0.00,,,0.00,WUHU216TE923,2013-08-07 03:39:00,
2013-08-06 20:44:00,75.7,32.9,29.81,East,90,1.2,3.2,21,0.00,,,0.00,WUHU216TE923,2013-08-07 03:44:00,
2013-08-06 20:49:00,75.6,32.9,29.81,ENE,68,0.7,1.5,21,0.00,,,0.00,WUHU216TE923,2013-08-07 03:49:00,
2013-08-06 20:54:00,75.2,32.5,29.81,North,0,0.4,1.5,21,0.00,,,0.00,WUHU216TE923,2013-08-07 03:54:00,
2013-08-06 20:59:00,75.0,33.5,29.82,NNE,23,0.5,1.1,22,0.00,,,0.00,WUHU216TE923,2013-08-07 03:59:00,
2013-08-06 21:04:00,74.7,33.3,29.82,NNW,338,0.9,1.5,22,0.00,,,0.00,WUHU216TE923,2013-08-07 04:04:00,
2013-08-06 21:09:00,74.5,33.1,29.82,North,0,1.4,2.8,22,0.00,,,0.00,WUHU216TE923,2013-08-07 04:09:00,
2013-08-06 21:14:00,74.3,32.9,29.82,NNW,338,2.1,4.6,22,0.00,,,0.00,WUHU216TE923,2013-08-07 04:14:00,
2013-08-06 21:19:00,74.1,32.7,29.82,North,0,2.3,4.6,22,0.00,,,0.00,WUHU216TE923,2013-08-07 04:19:00,
2013-08-06 21:24:00,73.9,33.7,29.82,NW,315,2.4,2.9,23,0.00,,,0.00,WUHU216TE923,2013-08-07 04:24:00,
2013-08-06 21:29:00,73.8,33.6,29.82,NW,315,2.0,2.9,23,0.00,,,0.00,WUHU216TE923,2013-08-07 04:29:00,
2013-08-06 21:34:00,73.6,33.4,29.82,North,0,1.3,2.0,23,0.00,,,0.00,WUHU216TE923,2013-08-07 04:34:00,
2013-08-06 21:39:00,73.2,35.1,29.82,NNE,23,0.8,1.3,25,0.00,,,0.00,WUHU216TE923,2013-08-07 04:39:00,
2013-08-06 21:44:00,73.0,35.0,29.82,NNW,338,1.4,3.2,25,0.00,,,0.00,WUHU216TE923,2013-08-07 04:44:00,
2013-08-06 21:49:00,73.0,35.0,29.82,North,0,2.5,3.4,25,0.00,,,0.00,WUHU216TE923,2013-08-07 04:49:00,
2013-08-06 21:54:00,72.7,34.7,29.82,NNW,338,3.0,3.4,25,0.00,,,0.00,WUHU216TE923,2013-08-07 04:54:00,
2013-08-06 21:59:00,72.5,35.5,29.82,NE,45,2.6,3.3,26,0.00,,,0.00,WUHU216TE923,2013-08-07 04:59:00,
2013-08-06 22:04:00,72.3,35.4,29.82,NNW,338,2.2,2.8,26,0.00,,,0.00,WUHU216TE923,2013-08-07 05:04:00,
2013-08-06 22:09:00,72.1,35.2,29.82,North,0,2.4,3.9,26,0.00,,,0.00,WUHU216TE923,2013-08-07 05:09:00,
2013-08-06 22:14:00,72.0,36.0,29.82,NNE,23,2.2,3.9,27,0.00,,,0.00,WUHU216TE923,2013-08-07 05:14:00,
2013-08-06 22:19:00,71.8,35.9,29.83,NW,315,2.2,3.1,27,0.00,,,0.00,WUHU216TE923,2013-08-07 05:19:00,
2013-08-06 22:24:00,71.8,36.8,29.83,NW,315,2.3,3.9,28,0.00,,,0.00,WUHU216TE923,2013-08-07 05:24:00,
2013-08-06 22:29:00,71.6,37.5,29.83,NNE,23,2.1,3.9,29,0.00,,,0.00,WUHU216TE923,2013-08-07 05:29:00,
2013-08-06 22:34:00,71.4,39.0,29.83,NW,315,2.2,2.8,31,0.00,,,0.00,WUHU216TE923,2013-08-07 05:34:00,
2013-08-06 22:39:00,71.2,38.8,29.83,NNE,23,2.4,3.3,31,0.00,,,0.00,WUHU216TE923,2013-08-07 05:39:00,
2013-08-06 22:44:00,71.1,39.6,29.83,NNE,23,2.2,4.0,32,0.00,,,0.00,WUHU216TE923,2013-08-07 05:44:00,
2013-08-06 22:49:00,71.1,40.3,29.83,NNW,338,2.3,4.0,33,0.00,,,0.00,WUHU216TE923,2013-08-07 05:49:00,
2013-08-06 22:54:00,70.9,41.7,29.83,ENE,68,2.9,4.5,35,0.00,,,0.00,WUHU216TE923,2013-08-07 05:54:00,
2013-08-06 22:59:00,70.7,41.5,29.83,NE,45,2.9,5.7,35,0.00,,,0.00,WUHU216TE923,2013-08-07 05:59:00,
2013-08-06 23:04:00,70.7,41.5,29.83,NE,45,3.1,5.7,35,0.00,,,0.00,WUHU216TE923,2013-08-07 06:04:00,
2013-08-06 23:09:00,70.5,41.3,29.83,NNE,23,3.4,4.2,35,0.00,,,0.00,WUHU216TE923,2013-08-07 06:09:00,
2013-08-06 23:14:00,70.5,41.3,29.83,NNW,338,3.2,3.4,35,0.00,,,0.00,WUHU216TE923,2013-08-07 06:14:00,
2013-08-06 23:19:00,70.3,41.2,29.83,NNW,338,2.6,3.2,35,0.00,,,0.00,WUHU216TE923,2013-08-07 06:19:00,
2013-08-06 23:24:00,70.2,41.8,29.83,NW,315,2.1,2.6,36,0.00,,,0.00,WUHU216TE923,2013-08-07 06:24:00,
2013-08-06 23:29:00,70.0,41.6,29.83,NNW,338,2.0,2.4,36,0.00,,,0.00,WUHU216TE923,2013-08-07 06:29:00,
2013-08-06 23:34:00,69.6,42.0,29.83,West,270,1.7,3.4,37,0.00,,,0.00,WUHU216TE923,2013-08-07 06:34:00,
2013-08-06 23:39:00,69.6,42.0,29.83,NW,315,1.5,3.4,37,0.00,,,0.00,WUHU216TE923,2013-08-07 06:39:00,
2013-08-06 23:44:00,69.6,42.0,29.83,NW,315,1.6,2.4,37,0.00,,,0.00,WUHU216TE923,2013-08-07 06:44:00,
2013-08-06 23:49:00,69.4,41.8,29.83,NNW,338,1.5,1.6,37,0.00,,,0.00,WUHU216TE923,2013-08-07 06:49:00,
2013-08-06 23:54:00,69.1,42.3,29.83,NW,315,0.5,1.5,38,0.00,,,0.00,WUHU216TE923,2013-08-07 06:54:00,
2013-08-06 23:59:00,68.9,42.1,29.84,NNW,338,0.1,0.5,38,0.00,,,0.00,WUHU216TE923,2013-08-07 06:59:00,